Year,Month,Day,Hour,Minute,Value (Times are PST for temperature in C)
2014,07,16,00,00,16.40
2014,07,16,00,01,16.40
2014,07,16,00,02,16.40
2014,07,16,00,03,16.40
2014,07,16,00,04,16.30
2014,07,16,00,05,16.30
2014,07,16,00,06,16.20
2014,07,16,00,07,16.20
2014,07,16,00,08,16.20
2014,07,16,00,09,16.20
2014,07,16,00,10,16.10
2014,07,16,00,11,16.10
2014,07,16,00,12,16.10
2014,07,16,00,13,16.10
2014,07,16,00,14,16.10
2014,07,16,00,15,16.10
2014,07,16,00,16,16.10
2014,07,16,00,17,16.10
2014,07,16,00,18,16.00
2014,07,16,00,19,15.90
2014,07,16,00,20,15.90
2014,07,16,00,21,15.90
2014,07,16,00,22,15.90
2014,07,16,00,23,15.80
2014,07,16,00,24,15.80
2014,07,16,00,25,15.80
2014,07,16,00,26,15.80
2014,07,16,00,27,15.80
2014,07,16,00,28,15.80
2014,07,16,00,29,15.80
2014,07,16,00,30,15.80
2014,07,16,00,31,15.80
2014,07,16,00,32,15.80
2014,07,16,00,33,15.80
2014,07,16,00,34,15.70
2014,07,16,00,35,15.70
2014,07,16,00,36,15.70
2014,07,16,00,37,15.70
2014,07,16,00,38,15.60
2014,07,16,00,39,15.60
2014,07,16,00,40,15.60
2014,07,16,00,41,15.60
2014,07,16,00,42,15.60
2014,07,16,00,43,15.60
2014,07,16,00,44,15.60
2014,07,16,00,45,15.60
2014,07,16,00,46,15.50
2014,07,16,00,47,15.50
2014,07,16,00,48,15.50
2014,07,16,00,49,15.50
2014,07,16,00,50,15.40
2014,07,16,00,51,15.40
2014,07,16,00,52,15.40
2014,07,16,00,53,15.30
2014,07,16,00,54,15.30
2014,07,16,00,55,15.30
2014,07,16,00,56,15.30
2014,07,16,00,57,15.30
2014,07,16,00,58,15.20
2014,07,16,00,59,15.20
2014,07,16,01,00,15.20
2014,07,16,01,01,15.10
2014,07,16,01,02,15.10
2014,07,16,01,03,15.10
2014,07,16,01,04,15.10
2014,07,16,01,05,15.00
2014,07,16,01,06,15.00
2014,07,16,01,07,15.00
2014,07,16,01,08,15.00
2014,07,16,01,09,15.00
2014,07,16,01,10,14.90
2014,07,16,01,11,14.90
2014,07,16,01,12,14.90
2014,07,16,01,13,14.90
2014,07,16,01,14,14.80
2014,07,16,01,15,14.80
2014,07,16,01,16,14.80
2014,07,16,01,17,14.80
2014,07,16,01,18,14.80
2014,07,16,01,19,14.80
2014,07,16,01,20,14.80
2014,07,16,01,21,14.70
2014,07,16,01,22,14.70
2014,07,16,01,23,14.70
2014,07,16,01,24,14.70
2014,07,16,01,25,14.60
2014,07,16,01,26,14.60
2014,07,16,01,27,14.60
2014,07,16,01,28,14.60
2014,07,16,01,29,14.60
2014,07,16,01,30,14.60
2014,07,16,01,31,14.50
2014,07,16,01,32,14.50
2014,07,16,01,33,14.50
2014,07,16,01,34,14.50
2014,07,16,01,35,14.50
2014,07,16,01,36,14.50
2014,07,16,01,37,14.40
2014,07,16,01,38,14.40
2014,07,16,01,39,14.40
2014,07,16,01,40,14.40
2014,07,16,01,41,14.40
2014,07,16,01,42,14.40
2014,07,16,01,43,14.40
2014,07,16,01,44,14.40
2014,07,16,01,45,14.40
2014,07,16,01,46,14.40
2014,07,16,01,47,14.40
2014,07,16,01,48,14.40
2014,07,16,01,49,14.40
2014,07,16,01,50,14.40
2014,07,16,01,51,14.40
2014,07,16,01,52,14.40
2014,07,16,01,53,14.40
2014,07,16,01,54,14.40
2014,07,16,01,55,14.40
2014,07,16,01,56,14.40
2014,07,16,01,57,14.30
2014,07,16,01,58,14.30
2014,07,16,01,59,14.30
2014,07,16,02,00,14.30
2014,07,16,02,01,14.20
2014,07,16,02,02,14.20
2014,07,16,02,03,14.20
2014,07,16,02,04,14.20
2014,07,16,02,05,14.20
2014,07,16,02,06,14.20
2014,07,16,02,07,14.20
2014,07,16,02,08,14.20
2014,07,16,02,09,14.10
2014,07,16,02,10,14.10
2014,07,16,02,11,14.10
2014,07,16,02,12,14.00
2014,07,16,02,13,14.00
2014,07,16,02,14,14.00
2014,07,16,02,15,14.00
2014,07,16,02,16,14.00
2014,07,16,02,17,14.00
2014,07,16,02,18,14.00
2014,07,16,02,19,14.00
2014,07,16,02,20,14.00
2014,07,16,02,21,13.90
2014,07,16,02,22,13.90
2014,07,16,02,23,13.90
2014,07,16,02,24,13.90
2014,07,16,02,25,13.80
2014,07,16,02,26,13.80
2014,07,16,02,27,13.80
2014,07,16,02,28,13.80
2014,07,16,02,29,13.70
2014,07,16,02,30,13.70
2014,07,16,02,31,13.70
2014,07,16,02,32,13.70
2014,07,16,02,33,13.70
2014,07,16,02,34,13.70
2014,07,16,02,35,13.70
2014,07,16,02,36,13.70
2014,07,16,02,37,13.70
2014,07,16,02,38,13.70
2014,07,16,02,39,13.80
2014,07,16,02,40,13.80
2014,07,16,02,41,13.80
2014,07,16,02,42,13.80
2014,07,16,02,43,13.80
2014,07,16,02,44,13.80
2014,07,16,02,45,13.80
2014,07,16,02,46,13.80
2014,07,16,02,47,13.80
2014,07,16,02,48,13.70
2014,07,16,02,49,13.80
2014,07,16,02,50,13.80
2014,07,16,02,51,13.70
2014,07,16,02,52,13.70
2014,07,16,02,53,13.70
2014,07,16,02,54,13.70
2014,07,16,02,55,13.70
2014,07,16,02,56,13.70
2014,07,16,02,57,13.80
2014,07,16,02,58,13.80
2014,07,16,02,59,13.80
2014,07,16,03,00,13.80
2014,07,16,03,01,13.80
2014,07,16,03,02,13.80
2014,07,16,03,03,13.80
2014,07,16,03,04,13.80
2014,07,16,03,05,13.80
2014,07,16,03,06,13.80
2014,07,16,03,07,13.80
2014,07,16,03,08,13.80
2014,07,16,03,09,13.80
2014,07,16,03,10,13.80
2014,07,16,03,11,13.80
2014,07,16,03,12,13.80
2014,07,16,03,13,13.80
2014,07,16,03,14,13.80
2014,07,16,03,15,13.80
2014,07,16,03,16,13.80
2014,07,16,03,17,13.80
2014,07,16,03,18,13.80
2014,07,16,03,19,13.80
2014,07,16,03,20,13.80
2014,07,16,03,21,13.80
2014,07,16,03,22,13.70
2014,07,16,03,23,13.70
2014,07,16,03,24,13.70
2014,07,16,03,25,13.70
2014,07,16,03,26,13.70
2014,07,16,03,27,13.70
2014,07,16,03,28,13.70
2014,07,16,03,29,13.70
2014,07,16,03,30,13.70
2014,07,16,03,31,13.70
2014,07,16,03,32,13.70
2014,07,16,03,33,13.70
2014,07,16,03,34,13.70
2014,07,16,03,35,13.70
2014,07,16,03,36,13.70
2014,07,16,03,37,13.70
2014,07,16,03,38,13.70
2014,07,16,03,39,13.70
2014,07,16,03,40,13.70
2014,07,16,03,41,13.70
2014,07,16,03,42,13.70
2014,07,16,03,43,13.70
2014,07,16,03,44,13.70
2014,07,16,03,45,13.70
2014,07,16,03,46,13.70
2014,07,16,03,47,13.70
2014,07,16,03,48,13.70
2014,07,16,03,49,13.70
2014,07,16,03,50,13.70
2014,07,16,03,51,13.70
2014,07,16,03,52,13.70
2014,07,16,03,53,13.70
2014,07,16,03,54,13.70
2014,07,16,03,55,13.70
2014,07,16,03,56,13.70
2014,07,16,03,57,13.70
2014,07,16,03,58,13.70
2014,07,16,03,59,13.60
2014,07,16,04,00,13.60
2014,07,16,04,01,13.60
2014,07,16,04,02,13.60
2014,07,16,04,03,13.50
2014,07,16,04,04,13.50
2014,07,16,04,05,13.50
2014,07,16,04,06,13.50
2014,07,16,04,07,13.50
2014,07,16,04,08,13.50
2014,07,16,04,09,13.40
2014,07,16,04,10,13.40
2014,07,16,04,11,13.30
2014,07,16,04,12,13.30
2014,07,16,04,13,13.30
2014,07,16,04,14,13.30
2014,07,16,04,15,13.30
2014,07,16,04,16,13.30
2014,07,16,04,17,13.30
2014,07,16,04,18,13.30
2014,07,16,04,19,13.30
2014,07,16,04,20,13.30
2014,07,16,04,21,13.30
2014,07,16,04,22,13.30
2014,07,16,04,23,13.30
2014,07,16,04,24,13.30
2014,07,16,04,25,13.20
2014,07,16,04,26,13.20
2014,07,16,04,27,13.20
2014,07,16,04,28,13.20
2014,07,16,04,29,13.20
2014,07,16,04,30,13.10
2014,07,16,04,31,13.10
2014,07,16,04,32,13.10
2014,07,16,04,33,13.10
2014,07,16,04,34,13.10
2014,07,16,04,35,13.00
2014,07,16,04,36,13.00
2014,07,16,04,37,13.00
2014,07,16,04,38,13.00
2014,07,16,04,39,13.00
2014,07,16,04,40,13.00
2014,07,16,04,41,13.00
2014,07,16,04,42,13.00
2014,07,16,04,43,13.00
2014,07,16,04,44,13.00
2014,07,16,04,45,13.00
2014,07,16,04,46,13.00
2014,07,16,04,47,13.00
2014,07,16,04,48,13.00
2014,07,16,04,49,12.90
2014,07,16,04,50,12.90
2014,07,16,04,51,12.90
2014,07,16,04,52,12.90
2014,07,16,04,53,12.90
2014,07,16,04,54,12.90
2014,07,16,04,55,12.80
2014,07,16,04,56,12.80
2014,07,16,04,57,12.80
2014,07,16,04,58,12.80
2014,07,16,04,59,12.80
2014,07,16,05,00,12.80
2014,07,16,05,01,12.80
2014,07,16,05,02,12.80
2014,07,16,05,03,12.80
2014,07,16,05,04,12.80
2014,07,16,05,05,12.80
2014,07,16,05,06,12.70
2014,07,16,05,07,12.70
2014,07,16,05,08,12.70
2014,07,16,05,09,12.70
2014,07,16,05,10,12.60
2014,07,16,05,11,12.60
2014,07,16,05,12,12.60
2014,07,16,05,13,12.60
2014,07,16,05,14,12.60
2014,07,16,05,15,12.60
2014,07,16,05,16,12.50
2014,07,16,05,17,12.50
2014,07,16,05,18,12.50
2014,07,16,05,19,12.50
2014,07,16,05,20,12.50
2014,07,16,05,21,12.40
2014,07,16,05,22,12.40
2014,07,16,05,23,12.40
2014,07,16,05,24,12.40
2014,07,16,05,25,12.30
2014,07,16,05,26,12.30
2014,07,16,05,27,12.30
2014,07,16,05,28,12.30
2014,07,16,05,29,12.30
2014,07,16,05,30,12.30
2014,07,16,05,31,12.30
2014,07,16,05,32,12.30
2014,07,16,05,33,12.30
2014,07,16,05,34,12.30
2014,07,16,05,35,12.30
2014,07,16,05,36,12.30
2014,07,16,05,37,12.30
2014,07,16,05,38,12.30
2014,07,16,05,39,12.30
2014,07,16,05,40,12.30
2014,07,16,05,41,12.30
2014,07,16,05,42,12.30
2014,07,16,05,43,12.30
2014,07,16,05,44,12.30
2014,07,16,05,45,12.30
2014,07,16,05,46,12.30
2014,07,16,05,47,12.30
2014,07,16,05,48,12.30
2014,07,16,05,49,12.30
2014,07,16,05,50,12.30
2014,07,16,05,51,12.30
2014,07,16,05,52,12.30
2014,07,16,05,53,12.30
2014,07,16,05,54,12.30
2014,07,16,05,55,12.30
2014,07,16,05,56,12.40
2014,07,16,05,57,12.40
2014,07,16,05,58,12.40
2014,07,16,05,59,12.50
2014,07,16,06,00,12.50
2014,07,16,06,01,12.60
2014,07,16,06,02,12.60
2014,07,16,06,03,12.60
2014,07,16,06,04,12.60
2014,07,16,06,05,12.70
2014,07,16,06,06,12.80
2014,07,16,06,07,12.80
2014,07,16,06,08,12.90
2014,07,16,06,09,12.90
2014,07,16,06,10,13.00
2014,07,16,06,11,13.00
2014,07,16,06,12,13.00
2014,07,16,06,13,13.00
2014,07,16,06,14,13.10
2014,07,16,06,15,13.10
2014,07,16,06,16,13.10
2014,07,16,06,17,13.20
2014,07,16,06,18,13.20
2014,07,16,06,19,13.30
2014,07,16,06,20,13.30
2014,07,16,06,21,13.30
2014,07,16,06,22,13.40
2014,07,16,06,23,13.50
2014,07,16,06,24,13.50
2014,07,16,06,25,13.60
2014,07,16,06,26,13.70
2014,07,16,06,27,13.70
2014,07,16,06,28,13.80
2014,07,16,06,29,13.80
2014,07,16,06,30,13.90
2014,07,16,06,31,13.90
2014,07,16,06,32,14.00
2014,07,16,06,33,14.00
2014,07,16,06,34,14.10
2014,07,16,06,35,14.10
2014,07,16,06,36,14.20
2014,07,16,06,37,14.20
2014,07,16,06,38,14.20
2014,07,16,06,39,14.30
2014,07,16,06,40,14.30
2014,07,16,06,41,14.30
2014,07,16,06,42,14.40
2014,07,16,06,43,14.50
2014,07,16,06,44,14.50
2014,07,16,06,45,14.60
2014,07,16,06,46,14.60
2014,07,16,06,47,14.70
2014,07,16,06,48,14.70
2014,07,16,06,49,14.70
2014,07,16,06,50,14.70
2014,07,16,06,51,14.70
2014,07,16,06,52,14.80
2014,07,16,06,53,14.80
2014,07,16,06,54,14.80
2014,07,16,06,55,14.90
2014,07,16,06,56,15.00
2014,07,16,06,57,15.00
2014,07,16,06,58,15.10
2014,07,16,06,59,15.10
2014,07,16,07,00,15.10
2014,07,16,07,01,15.20
2014,07,16,07,02,15.30
2014,07,16,07,03,15.30
2014,07,16,07,04,15.40
2014,07,16,07,05,15.40
2014,07,16,07,06,15.50
2014,07,16,07,07,15.50
2014,07,16,07,08,15.60
2014,07,16,07,09,15.60
2014,07,16,07,10,15.80
2014,07,16,07,11,15.80
2014,07,16,07,12,16.00
2014,07,16,07,13,16.10
2014,07,16,07,14,16.20
2014,07,16,07,15,16.30
2014,07,16,07,16,16.30
2014,07,16,07,17,16.40
2014,07,16,07,18,16.40
2014,07,16,07,19,16.50
2014,07,16,07,20,16.60
2014,07,16,07,21,16.60
2014,07,16,07,22,16.60
2014,07,16,07,23,16.70
2014,07,16,07,24,16.70
2014,07,16,07,25,16.80
2014,07,16,07,26,16.90
2014,07,16,07,27,17.00
2014,07,16,07,28,17.10
2014,07,16,07,29,17.20
2014,07,16,07,30,17.30
2014,07,16,07,31,17.40
2014,07,16,07,32,17.50
2014,07,16,07,33,17.60
2014,07,16,07,34,17.70
2014,07,16,07,35,17.80
2014,07,16,07,36,17.90
2014,07,16,07,37,17.90
2014,07,16,07,38,18.00
2014,07,16,07,39,18.10
2014,07,16,07,40,18.20
2014,07,16,07,41,18.20
2014,07,16,07,42,18.20
2014,07,16,07,43,18.20
2014,07,16,07,44,18.30
2014,07,16,07,45,18.40
2014,07,16,07,46,18.40
2014,07,16,07,47,18.40
2014,07,16,07,48,18.50
2014,07,16,07,49,18.60
2014,07,16,07,50,18.70
2014,07,16,07,51,18.70
2014,07,16,07,52,18.90
2014,07,16,07,53,18.90
2014,07,16,07,54,19.00
2014,07,16,07,55,19.10
2014,07,16,07,56,19.10
2014,07,16,07,57,19.10
2014,07,16,07,58,19.20
2014,07,16,07,59,19.40
2014,07,16,08,00,19.40
2014,07,16,08,01,19.50
2014,07,16,08,02,19.60
2014,07,16,08,03,19.60
2014,07,16,08,04,19.70
2014,07,16,08,05,19.80
2014,07,16,08,06,19.80
2014,07,16,08,07,19.80
2014,07,16,08,08,19.90
2014,07,16,08,09,19.90
2014,07,16,08,10,19.90
2014,07,16,08,11,19.90
2014,07,16,08,12,19.90
2014,07,16,08,13,19.90
2014,07,16,08,14,19.90
2014,07,16,08,15,19.90
2014,07,16,08,16,19.90
2014,07,16,08,17,19.90
2014,07,16,08,18,19.80
2014,07,16,08,19,19.80
2014,07,16,08,20,19.90
2014,07,16,08,21,20.00
2014,07,16,08,22,20.10
2014,07,16,08,23,20.20
2014,07,16,08,24,20.20
2014,07,16,08,25,20.30
2014,07,16,08,26,20.40
2014,07,16,08,27,20.40
2014,07,16,08,28,20.40
2014,07,16,08,29,20.50
2014,07,16,08,30,20.50
2014,07,16,08,31,20.60
2014,07,16,08,32,20.60
2014,07,16,08,33,20.70
2014,07,16,08,34,20.80
2014,07,16,08,35,20.80
2014,07,16,08,36,20.80
2014,07,16,08,37,20.80
2014,07,16,08,38,20.90
2014,07,16,08,39,20.90
2014,07,16,08,40,20.90
2014,07,16,08,41,21.00
2014,07,16,08,42,21.10
2014,07,16,08,43,21.20
2014,07,16,08,44,21.30
2014,07,16,08,45,21.30
2014,07,16,08,46,21.30
2014,07,16,08,47,21.40
2014,07,16,08,48,21.50
2014,07,16,08,49,21.60
2014,07,16,08,50,21.70
2014,07,16,08,51,21.80
2014,07,16,08,52,21.90
2014,07,16,08,53,21.90
2014,07,16,08,54,22.00
2014,07,16,08,55,22.00
2014,07,16,08,56,22.10
2014,07,16,08,57,22.20
2014,07,16,08,58,22.30
2014,07,16,08,59,22.30
2014,07,16,09,00,22.30
2014,07,16,09,01,22.20
2014,07,16,09,02,22.20
2014,07,16,09,03,22.20
2014,07,16,09,04,22.20
2014,07,16,09,05,22.10
2014,07,16,09,06,22.00
2014,07,16,09,07,21.90
2014,07,16,09,08,22.00
2014,07,16,09,09,22.00
2014,07,16,09,10,22.10
2014,07,16,09,11,22.20
2014,07,16,09,12,22.30
2014,07,16,09,13,22.50
2014,07,16,09,14,22.50
2014,07,16,09,15,22.50
2014,07,16,09,16,22.60
2014,07,16,09,17,22.70
2014,07,16,09,18,22.80
2014,07,16,09,19,22.80
2014,07,16,09,20,22.90
2014,07,16,09,21,23.10
2014,07,16,09,22,23.20
2014,07,16,09,23,23.30
2014,07,16,09,24,23.40
2014,07,16,09,25,23.50
2014,07,16,09,26,23.60
2014,07,16,09,27,23.60
2014,07,16,09,28,23.60
2014,07,16,09,29,23.70
2014,07,16,09,30,23.70
2014,07,16,09,31,23.70
2014,07,16,09,32,23.70
2014,07,16,09,33,23.80
2014,07,16,09,34,23.70
2014,07,16,09,35,23.50
2014,07,16,09,36,23.30
2014,07,16,09,37,23.20
2014,07,16,09,38,23.10
2014,07,16,09,39,23.00
2014,07,16,09,40,22.90
2014,07,16,09,41,22.90
2014,07,16,09,42,22.90
2014,07,16,09,43,22.80
2014,07,16,09,44,22.70
2014,07,16,09,45,22.60
2014,07,16,09,46,22.40
2014,07,16,09,47,22.20
2014,07,16,09,48,22.10
2014,07,16,09,49,22.10
2014,07,16,09,50,22.20
2014,07,16,09,51,22.20
2014,07,16,09,52,22.10
2014,07,16,09,53,22.20
2014,07,16,09,54,22.20
2014,07,16,09,55,22.30
2014,07,16,09,56,22.40
2014,07,16,09,57,22.50
2014,07,16,09,58,22.60
2014,07,16,09,59,22.60
2014,07,16,10,00,22.50
2014,07,16,10,01,22.50
2014,07,16,10,02,22.50
2014,07,16,10,03,22.60
2014,07,16,10,04,22.70
2014,07,16,10,05,22.70
2014,07,16,10,06,22.70
2014,07,16,10,07,22.60
2014,07,16,10,08,22.60
2014,07,16,10,09,22.50
2014,07,16,10,10,22.30
2014,07,16,10,11,22.30
2014,07,16,10,12,22.30
2014,07,16,10,13,22.20
2014,07,16,10,14,22.10
2014,07,16,10,15,22.10
2014,07,16,10,16,22.00
2014,07,16,10,17,22.10
2014,07,16,10,18,22.20
2014,07,16,10,19,22.30
2014,07,16,10,20,22.40
2014,07,16,10,21,22.40
2014,07,16,10,22,22.50
2014,07,16,10,23,22.60
2014,07,16,10,24,22.50
2014,07,16,10,25,22.60
2014,07,16,10,26,22.70
2014,07,16,10,27,22.70
2014,07,16,10,28,22.70
2014,07,16,10,29,22.70
2014,07,16,10,30,22.60
2014,07,16,10,31,22.30
2014,07,16,10,32,22.30
2014,07,16,10,33,22.30
2014,07,16,10,34,22.30
2014,07,16,10,35,22.10
2014,07,16,10,36,22.10
2014,07,16,10,37,22.10
2014,07,16,10,38,22.10
2014,07,16,10,39,22.00
2014,07,16,10,40,21.80
2014,07,16,10,41,21.70
2014,07,16,10,42,21.60
2014,07,16,10,43,21.70
2014,07,16,10,44,21.70
2014,07,16,10,45,21.60
2014,07,16,10,46,21.60
2014,07,16,10,47,21.60
2014,07,16,10,48,21.60
2014,07,16,10,49,21.60
2014,07,16,10,50,21.60
2014,07,16,10,51,21.60
2014,07,16,10,52,21.60
2014,07,16,10,53,21.60
2014,07,16,10,54,21.40
2014,07,16,10,55,21.30
2014,07,16,10,56,21.20
2014,07,16,10,57,21.20
2014,07,16,10,58,21.30
2014,07,16,10,59,21.30
2014,07,16,11,00,21.30
2014,07,16,11,01,21.30
2014,07,16,11,02,21.30
2014,07,16,11,03,21.30
2014,07,16,11,04,21.30
2014,07,16,11,05,21.20
2014,07,16,11,06,21.20
2014,07,16,11,07,21.20
2014,07,16,11,08,21.30
2014,07,16,11,09,21.30
2014,07,16,11,10,21.50
2014,07,16,11,11,21.60
2014,07,16,11,12,21.60
2014,07,16,11,13,21.70
2014,07,16,11,14,21.70
2014,07,16,11,15,21.70
2014,07,16,11,16,21.60
2014,07,16,11,17,21.60
2014,07,16,11,18,21.60
2014,07,16,11,19,21.50
2014,07,16,11,20,21.40
2014,07,16,11,21,21.30
2014,07,16,11,22,21.30
2014,07,16,11,23,21.30
2014,07,16,11,24,21.30
2014,07,16,11,25,21.30
2014,07,16,11,26,21.30
2014,07,16,11,27,21.30
2014,07,16,11,28,21.40
2014,07,16,11,29,21.50
2014,07,16,11,30,21.60
2014,07,16,11,31,21.60
2014,07,16,11,32,21.70
2014,07,16,11,33,21.60
2014,07,16,11,34,21.60
2014,07,16,11,35,21.60
2014,07,16,11,36,21.60
2014,07,16,11,37,21.60
2014,07,16,11,38,21.60
2014,07,16,11,39,21.60
2014,07,16,11,40,21.60
2014,07,16,11,41,21.60
2014,07,16,11,42,21.60
2014,07,16,11,43,21.60
2014,07,16,11,44,21.60
2014,07,16,11,45,21.60
2014,07,16,11,46,21.60
2014,07,16,11,47,21.60
2014,07,16,11,48,21.60
2014,07,16,11,49,21.60
2014,07,16,11,50,21.70
2014,07,16,11,51,21.80
2014,07,16,11,52,21.90
2014,07,16,11,53,22.00
2014,07,16,11,54,22.20
2014,07,16,11,55,22.20
2014,07,16,11,56,22.20
2014,07,16,11,57,22.10
2014,07,16,11,58,22.10
2014,07,16,11,59,22.00
2014,07,16,12,00,22.00
2014,07,16,12,01,22.00
2014,07,16,12,02,22.10
2014,07,16,12,03,22.30
2014,07,16,12,04,22.40
2014,07,16,12,05,22.50
2014,07,16,12,06,22.50
2014,07,16,12,07,22.40
2014,07,16,12,08,22.50
2014,07,16,12,09,22.50
2014,07,16,12,10,22.30
2014,07,16,12,11,22.30
2014,07,16,12,12,22.30
2014,07,16,12,13,22.40
2014,07,16,12,14,22.40
2014,07,16,12,15,22.60
2014,07,16,12,16,22.80
2014,07,16,12,17,22.90
2014,07,16,12,18,22.90
2014,07,16,12,19,23.00
2014,07,16,12,20,23.10
2014,07,16,12,21,23.10
2014,07,16,12,22,23.20
2014,07,16,12,23,23.30
2014,07,16,12,24,23.30
2014,07,16,12,25,23.50
2014,07,16,12,26,23.70
2014,07,16,12,27,23.70
2014,07,16,12,28,23.90
2014,07,16,12,29,24.00
2014,07,16,12,30,24.10
2014,07,16,12,31,24.10
2014,07,16,12,32,24.10
2014,07,16,12,33,23.90
2014,07,16,12,34,23.70
2014,07,16,12,35,23.50
2014,07,16,12,36,23.30
2014,07,16,12,37,23.30
2014,07,16,12,38,23.30
2014,07,16,12,39,23.30
2014,07,16,12,40,23.30
2014,07,16,12,41,23.30
2014,07,16,12,42,23.20
2014,07,16,12,43,23.10
2014,07,16,12,44,22.90
2014,07,16,12,45,22.90
2014,07,16,12,46,23.00
2014,07,16,12,47,23.30
2014,07,16,12,48,23.30
2014,07,16,12,49,23.30
2014,07,16,12,50,23.30
2014,07,16,12,51,23.30
2014,07,16,12,52,23.30
2014,07,16,12,53,23.30
2014,07,16,12,54,23.20
2014,07,16,12,55,23.20
2014,07,16,12,56,23.30
2014,07,16,12,57,23.30
2014,07,16,12,58,23.40
2014,07,16,12,59,23.50
2014,07,16,13,00,23.60
2014,07,16,13,01,23.70
2014,07,16,13,02,23.70
2014,07,16,13,03,23.90
2014,07,16,13,04,24.10
2014,07,16,13,05,24.10
2014,07,16,13,06,24.30
2014,07,16,13,07,24.40
2014,07,16,13,08,24.50
2014,07,16,13,09,24.60
2014,07,16,13,10,24.60
2014,07,16,13,11,24.40
2014,07,16,13,12,24.30
2014,07,16,13,13,24.30
2014,07,16,13,14,24.30
2014,07,16,13,15,24.20
2014,07,16,13,16,24.10
2014,07,16,13,17,24.10
2014,07,16,13,18,24.10
2014,07,16,13,19,24.10
2014,07,16,13,20,24.10
2014,07,16,13,21,24.20
2014,07,16,13,22,24.20
2014,07,16,13,23,24.20
2014,07,16,13,24,24.20
2014,07,16,13,25,24.20
2014,07,16,13,26,24.10
2014,07,16,13,27,24.10
2014,07,16,13,28,24.10
2014,07,16,13,29,24.10
2014,07,16,13,30,23.90
2014,07,16,13,31,23.70
2014,07,16,13,32,23.70
2014,07,16,13,33,23.70
2014,07,16,13,34,23.70
2014,07,16,13,35,23.60
2014,07,16,13,36,23.50
2014,07,16,13,37,23.40
2014,07,16,13,38,23.40
2014,07,16,13,39,23.50
2014,07,16,13,40,23.60
2014,07,16,13,41,23.70
2014,07,16,13,42,23.70
2014,07,16,13,43,23.70
2014,07,16,13,44,23.80
2014,07,16,13,45,24.00
2014,07,16,13,46,24.10
2014,07,16,13,47,24.30
2014,07,16,13,48,24.50
2014,07,16,13,49,24.60
2014,07,16,13,50,24.70
2014,07,16,13,51,24.70
2014,07,16,13,52,24.70
2014,07,16,13,53,24.50
2014,07,16,13,54,24.40
2014,07,16,13,55,24.30
2014,07,16,13,56,24.30
2014,07,16,13,57,24.30
2014,07,16,13,58,24.50
2014,07,16,13,59,24.60
2014,07,16,14,00,24.80
2014,07,16,14,01,24.90
2014,07,16,14,02,24.90
2014,07,16,14,03,24.80
2014,07,16,14,04,24.70
2014,07,16,14,05,24.70
2014,07,16,14,06,24.80
2014,07,16,14,07,24.90
2014,07,16,14,08,25.00
2014,07,16,14,09,24.90
2014,07,16,14,10,24.70
2014,07,16,14,11,24.70
2014,07,16,14,12,24.80
2014,07,16,14,13,24.80
2014,07,16,14,14,24.70
2014,07,16,14,15,24.80
2014,07,16,14,16,24.90
2014,07,16,14,17,24.80
2014,07,16,14,18,24.70
2014,07,16,14,19,24.80
2014,07,16,14,20,24.80
2014,07,16,14,21,24.70
2014,07,16,14,22,24.70
2014,07,16,14,23,24.80
2014,07,16,14,24,24.90
2014,07,16,14,25,24.90
2014,07,16,14,26,24.80
2014,07,16,14,27,24.70
2014,07,16,14,28,24.70
2014,07,16,14,29,24.60
2014,07,16,14,30,24.60
2014,07,16,14,31,24.50
2014,07,16,14,32,24.40
2014,07,16,14,33,24.30
2014,07,16,14,34,24.40
2014,07,16,14,35,24.40
2014,07,16,14,36,24.50
2014,07,16,14,37,24.60
2014,07,16,14,38,24.60
2014,07,16,14,39,24.60
2014,07,16,14,40,24.60
2014,07,16,14,41,24.50
2014,07,16,14,42,24.50
2014,07,16,14,43,24.60
2014,07,16,14,44,24.70
2014,07,16,14,45,24.80
2014,07,16,14,46,24.80
2014,07,16,14,47,24.90
2014,07,16,14,48,24.90
2014,07,16,14,49,24.80
2014,07,16,14,50,24.70
2014,07,16,14,51,24.70
2014,07,16,14,52,24.80
2014,07,16,14,53,24.90
2014,07,16,14,54,24.90
2014,07,16,14,55,24.90
2014,07,16,14,56,24.90
2014,07,16,14,57,24.90
2014,07,16,14,58,24.90
2014,07,16,14,59,24.90
2014,07,16,15,00,24.80
2014,07,16,15,01,24.70
2014,07,16,15,02,24.70
2014,07,16,15,03,24.80
2014,07,16,15,04,24.80
2014,07,16,15,05,24.80
2014,07,16,15,06,24.90
2014,07,16,15,07,24.90
2014,07,16,15,08,24.80
2014,07,16,15,09,24.60
2014,07,16,15,10,24.50
2014,07,16,15,11,24.60
2014,07,16,15,12,24.60
2014,07,16,15,13,24.60
2014,07,16,15,14,24.50
2014,07,16,15,15,24.30
2014,07,16,15,16,24.20
2014,07,16,15,17,24.10
2014,07,16,15,18,24.10
2014,07,16,15,19,24.00
2014,07,16,15,20,23.90
2014,07,16,15,21,24.00
2014,07,16,15,22,24.10
2014,07,16,15,23,24.10
2014,07,16,15,24,24.10
2014,07,16,15,25,24.10
2014,07,16,15,26,24.10
2014,07,16,15,27,24.20
2014,07,16,15,28,24.20
2014,07,16,15,29,24.20
2014,07,16,15,30,24.30
2014,07,16,15,31,24.30
2014,07,16,15,32,24.30
2014,07,16,15,33,24.30
2014,07,16,15,34,24.20
2014,07,16,15,35,24.30
2014,07,16,15,36,24.40
2014,07,16,15,37,24.40
2014,07,16,15,38,24.50
2014,07,16,15,39,24.60
2014,07,16,15,40,24.60
2014,07,16,15,41,24.50
2014,07,16,15,42,24.50
2014,07,16,15,43,24.50
2014,07,16,15,44,24.60
2014,07,16,15,45,24.70
2014,07,16,15,46,24.70
2014,07,16,15,47,24.80
2014,07,16,15,48,24.90
2014,07,16,15,49,25.10
2014,07,16,15,50,25.20
2014,07,16,15,51,25.40
2014,07,16,15,52,25.40
2014,07,16,15,53,25.50
2014,07,16,15,54,25.50
2014,07,16,15,55,25.40
2014,07,16,15,56,25.40
2014,07,16,15,57,25.20
2014,07,16,15,58,25.10
2014,07,16,15,59,25.10
2014,07,16,16,00,25.00
2014,07,16,16,01,25.00
2014,07,16,16,02,24.80
2014,07,16,16,03,24.70
2014,07,16,16,04,24.60
2014,07,16,16,05,24.60
2014,07,16,16,06,24.60
2014,07,16,16,07,24.70
2014,07,16,16,08,24.60
2014,07,16,16,09,24.50
2014,07,16,16,10,24.50
2014,07,16,16,11,24.60
2014,07,16,16,12,24.70
2014,07,16,16,13,24.80
2014,07,16,16,14,24.70
2014,07,16,16,15,24.70
2014,07,16,16,16,24.80
2014,07,16,16,17,24.90
2014,07,16,16,18,25.00
2014,07,16,16,19,25.00
2014,07,16,16,20,25.00
2014,07,16,16,21,25.00
2014,07,16,16,22,25.00
2014,07,16,16,23,25.00
2014,07,16,16,24,25.00
2014,07,16,16,25,25.10
2014,07,16,16,26,25.20
2014,07,16,16,27,25.20
2014,07,16,16,28,25.20
2014,07,16,16,29,25.20
2014,07,16,16,30,25.20
2014,07,16,16,31,25.30
2014,07,16,16,32,25.30
2014,07,16,16,33,25.30
2014,07,16,16,34,25.30
2014,07,16,16,35,25.20
2014,07,16,16,36,25.20
2014,07,16,16,37,25.20
2014,07,16,16,38,25.10
2014,07,16,16,39,25.10
2014,07,16,16,40,25.00
2014,07,16,16,41,24.90
2014,07,16,16,42,24.80
2014,07,16,16,43,24.80
2014,07,16,16,44,24.80
2014,07,16,16,45,24.90
2014,07,16,16,46,24.90
2014,07,16,16,47,25.00
2014,07,16,16,48,25.00
2014,07,16,16,49,25.00
2014,07,16,16,50,25.00
2014,07,16,16,51,25.00
2014,07,16,16,52,25.00
2014,07,16,16,53,25.10
2014,07,16,16,54,25.20
2014,07,16,16,55,25.30
2014,07,16,16,56,25.40
2014,07,16,16,57,25.40
2014,07,16,16,58,25.50
2014,07,16,16,59,25.40
2014,07,16,17,00,25.20
2014,07,16,17,01,25.20
2014,07,16,17,02,25.20
2014,07,16,17,03,25.20
2014,07,16,17,04,25.20
2014,07,16,17,05,25.10
2014,07,16,17,06,25.10
2014,07,16,17,07,25.00
2014,07,16,17,08,25.00
2014,07,16,17,09,25.00
2014,07,16,17,10,25.20
2014,07,16,17,11,25.30
2014,07,16,17,12,25.40
2014,07,16,17,13,25.40
2014,07,16,17,14,25.50
2014,07,16,17,15,25.50
2014,07,16,17,16,25.40
2014,07,16,17,17,25.20
2014,07,16,17,18,25.20
2014,07,16,17,19,25.10